Location: Hertford
(51.8000°N, 0.0667°W)
Time: 03:53:07
(UTC+00:00)

NOSS 2-2 (D) - Pass Details

Date: 18 September 2020
Orbit: 462 x 1746 km, 63.3° (Epoch: 14 October)

Event Time Altitude Azimuth Distance (km) Brightness Sun altitude
Rises 19:20:31 0° 202° (SSW) 2,481 6.7 -12.0°
Reaches altitude 10° 19:22:38 10° 193° (SSW) 1,614 5.7 -12.3°
Maximum altitude 19:25:52 37° 124° (SE) 772 3.6 -12.8°
Drops below altitude 10° 19:29:31 10° 56° (NE) 1,828 5.6 -13.3°
Sets 19:32:03 0° 49° (NE) 2,871 6.7 -13.7°
